Location: Northam
(31.6525°S, 116.6655°E)
Time: 18:28:33
(UTC+08:00)

AAUSAT CUBESAT 2 - Pass Details

Date: 02 August 2021
Orbit: 572 x 587 km, 97.5° (Epoch: 18 September)

Event Time Altitude Azimuth Distance (km) Brightness Sun altitude
Rises 05:14:48 0° 359° (N) 2,777 ? -22.7°
Reaches altitude 10° 05:17:00 10° 352° (N) 1,890 ? -22.3°
Enters shadow 05:18:46 23° 339° (NNW) 1,239 ? -21.9°
